Weather History for KMVE - August, 2014

Change the Weather History Date:

Tuesday, August 12, 2014

  Actual Average Record
Temperature  
Mean Temperature 66 °F -  
Max Temperature 80 °F 84 °F 101 °F (1988)
Min Temperature 51 °F 59 °F 6 °F (1998)
Growing Degree Days 16 (Base 50)    
Moisture  
Dew Point 55 °F    
Average Humidity 69    
Maximum Humidity 94    
Minimum Humidity 42    
Precipitation  
Precipitation 0.00 in - - ()
Sea Level Pressure  
Sea Level Pressure 30.11 in    
Wind  
Wind Speed 6 mph (NNW)    
Max Wind Speed 12 mph    
Max Gust Speed 9 mph    
Visibility 10 miles    
Events      
Averages and records for this station are not official NWS values.
T = Trace of Precipitation, MM = Missing Value Source: NWS Daily Summary

Daily Weather History Graph

Daily Weather History Graph

Search for Another Location

Airport or City:

Trip Planner

Search our weather history database for the weather conditions in past years. The results will help you decide how hot, cold, wet, or windy it might be!

Date:

Astronomy

Aug. 12, 2014 Rise Set
Actual Time 6:21 AM CDT 8:33 PM CDT
Civil Twilight 5:48 AM CDT 9:05 PM CDT
Nautical Twilight 5:08 AM CDT 9:45 PM CDT
Astronomical Twilight 4:24 AM CDT 10:29 PM CDT
Moon 9:31 PM CDT (8/12) 8:48 AM CDT (8/12)
Length of Visible Light 15h 17m
Length of Day
14h 12m
Waning Gibbous, 94% of the Moon is Illuminated
Aug 12
Waning Gibbous
Aug 17
Last Quarter
Aug 25
New
Sep 2
First Quarter
Sep 8
Full

Hourly Weather History & Observations

Time (CDT) Temp. Heat Index Dew Point Humidity Pressure Visibility Wind Dir Wind Speed Gust Speed Precip Events Conditions
12:33 AM 57.2 °F - 51.8 °F 82% 30.13 in 10.0 mi North 5.8 mph - N/A   Clear
12:54 AM 55.4 °F - 50.0 °F 82% 30.13 in 10.0 mi North 4.6 mph - N/A   Clear
1:14 AM 55.4 °F - 50.0 °F 82% 30.13 in 10.0 mi North 5.8 mph - N/A   Clear
1:34 AM 55.4 °F - 50.0 °F 82% 30.13 in 10.0 mi North 4.6 mph - N/A   Clear
1:54 AM 55.4 °F - 50.0 °F 82% 30.13 in 10.0 mi North 3.5 mph - N/A   Clear
2:14 AM 55.4 °F - 48.2 °F 77% 30.13 in 10.0 mi Calm Calm - N/A   Clear
2:34 AM 53.6 °F - 48.2 °F 82% 30.12 in 10.0 mi North 3.5 mph - N/A   Clear
2:54 AM 53.6 °F - 48.2 °F 82% 30.12 in 10.0 mi North 3.5 mph - N/A   Clear
3:14 AM 53.6 °F - 48.2 °F 82% 30.12 in 10.0 mi NNW 3.5 mph - N/A   Clear
3:34 AM 53.6 °F - 48.2 °F 82% 30.12 in 10.0 mi NNW 5.8 mph - N/A   Clear
3:54 AM 53.6 °F - 48.2 °F 82% 30.12 in 10.0 mi NNW 5.8 mph - N/A   Clear
4:34 AM 53.6 °F - 50.0 °F 88% 30.12 in 10.0 mi NW 5.8 mph - N/A   Clear
4:54 AM 53.6 °F - 50.0 °F 88% 30.12 in 10.0 mi NW 5.8 mph - N/A   Clear
5:14 AM 53.6 °F - 50.0 °F 88% 30.12 in 10.0 mi NNW 5.8 mph - N/A   Clear
5:34 AM 51.8 °F - 48.2 °F 88% 30.13 in 10.0 mi NW 6.9 mph - N/A   Clear
5:54 AM 51.8 °F - 50.0 °F 94% 30.13 in 10.0 mi NW 6.9 mph - N/A   Clear
6:14 AM 51.8 °F - 50.0 °F 94% 30.13 in 10.0 mi NNW 6.9 mph - N/A   Clear
6:34 AM 53.6 °F - 51.8 °F 94% 30.14 in 10.0 mi NNW 6.9 mph - N/A   Clear
6:54 AM 53.6 °F - 51.8 °F 94% 30.14 in 10.0 mi NW 6.9 mph - N/A   Clear
7:14 AM 55.4 °F - 53.6 °F 94% 30.15 in 10.0 mi NNW 6.9 mph - N/A   Clear
7:34 AM 57.2 °F - 55.4 °F 94% 30.15 in 10.0 mi NNW 6.9 mph - N/A   Clear
7:54 AM 59.0 °F - 55.4 °F 88% 30.15 in 10.0 mi NNW 6.9 mph - N/A   Clear
8:14 AM 60.8 °F - 57.2 °F 88% 30.15 in 10.0 mi North 4.6 mph - N/A   Clear
8:34 AM 62.6 °F - 57.2 °F 82% 30.15 in 10.0 mi NNW 5.8 mph - N/A   Clear
8:54 AM 64.4 °F - 59.0 °F 83% 30.15 in 10.0 mi NNW 6.9 mph - N/A   Clear
9:14 AM 66.2 °F - 59.0 °F 78% 30.15 in 10.0 mi NNW 6.9 mph - N/A   Clear
9:34 AM 66.2 °F - 60.8 °F 83% 30.15 in 10.0 mi North 4.6 mph - N/A   Clear
9:54 AM 69.8 °F - 60.8 °F 73% 30.15 in 10.0 mi North 4.6 mph - N/A   Clear
10:14 AM 69.8 °F - 60.8 °F 73% 30.15 in 10.0 mi North 8.1 mph - N/A   Clear
10:34 AM 71.6 °F - 59.0 °F 64% 30.15 in 10.0 mi North 6.9 mph - N/A   Clear
10:54 AM 71.6 °F - 60.8 °F 69% 30.15 in 10.0 mi North 8.1 mph - N/A   Clear
12:34 PM 73.4 °F - 55.4 °F 53% 30.14 in 10.0 mi North 10.4 mph - N/A   Clear
12:54 PM 73.4 °F - 55.4 °F 53% 30.13 in 10.0 mi North 9.2 mph - N/A   Clear
1:13 PM 75.2 °F - 55.4 °F 50% 30.13 in 10.0 mi North 8.1 mph - N/A   Clear
1:34 PM 75.2 °F - 57.2 °F 53% 30.13 in 10.0 mi North 11.5 mph - N/A   Clear
1:54 PM 75.2 °F - 57.2 °F 53% 30.12 in 10.0 mi NNE 10.4 mph - N/A   Clear
2:13 PM 75.2 °F - 57.2 °F 53% 30.11 in 10.0 mi NNE 10.4 mph - N/A   Clear
2:34 PM 75.2 °F - 57.2 °F 53% 30.11 in 10.0 mi NE 8.1 mph - N/A   Clear
2:54 PM 77.0 °F - 57.2 °F 50% 30.11 in 10.0 mi NNE 4.6 mph 9.2 mph N/A   Clear
3:34 PM 78.8 °F - 59.0 °F 51% 30.10 in 10.0 mi North 10.4 mph - N/A   Clear
3:53 PM 78.8 °F - 57.2 °F 47% 30.09 in 10.0 mi NNW 6.9 mph - N/A   Clear
4:14 PM 78.8 °F - 57.2 °F 47% 30.09 in 10.0 mi NNW 8.1 mph - N/A   Clear
4:34 PM 80.6 °F 80.8 °F 57.2 °F 45% 30.08 in 10.0 mi North 8.1 mph - N/A   Clear
4:54 PM 80.6 °F 80.8 °F 57.2 °F 45% 30.08 in 10.0 mi North 5.8 mph - N/A   Clear
5:14 PM 80.6 °F 80.5 °F 55.4 °F 42% 30.08 in 10.0 mi NNW 10.4 mph - N/A   Clear
5:34 PM 80.6 °F 80.8 °F 57.2 °F 45% 30.08 in 10.0 mi NNW 8.1 mph - N/A   Clear
5:54 PM 80.6 °F 80.8 °F 57.2 °F 45% 30.07 in 10.0 mi NNW 8.1 mph - N/A   Clear
6:14 PM 78.8 °F - 57.2 °F 47% 30.07 in 10.0 mi NNW 8.1 mph - N/A   Clear
6:54 PM 77.0 °F - 57.2 °F 50% 30.07 in 10.0 mi NNW 4.6 mph - N/A   Clear
7:14 PM 75.2 °F - 55.4 °F 50% 30.07 in 10.0 mi Calm Calm - N/A   Clear
7:34 PM 75.2 °F - 57.2 °F 53% 30.06 in 10.0 mi Calm Calm - N/A   Clear
7:54 PM 73.4 °F - 55.4 °F 53% 30.06 in 10.0 mi Calm Calm - N/A   Clear
8:14 PM 71.6 °F - 57.2 °F 60% 30.06 in 10.0 mi Calm Calm - N/A   Clear
8:33 PM 71.6 °F - 57.2 °F 60% 30.07 in 10.0 mi WNW 3.5 mph - N/A   Clear
8:54 PM 69.8 °F - 57.2 °F 64% 30.07 in 10.0 mi WNW 3.5 mph - N/A   Clear
9:14 PM 68.0 °F - 55.4 °F 64% 30.07 in 10.0 mi Calm Calm - N/A   Clear
9:54 PM 66.2 °F - 55.4 °F 68% 30.07 in 10.0 mi West 3.5 mph - N/A   Clear
10:14 PM 64.4 °F - 55.4 °F 73% 30.08 in 10.0 mi Calm Calm - N/A   Clear
10:34 PM 64.4 °F - 53.6 °F 68% 30.08 in 10.0 mi West 3.5 mph - N/A   Clear
10:54 PM 64.4 °F - 53.6 °F 68% 30.08 in 10.0 mi West 4.6 mph - N/A   Clear
11:14 PM 64.4 °F - 55.4 °F 73% 30.08 in 10.0 mi West 5.8 mph - N/A   Clear
11:54 PM 64.4 °F - 57.2 °F 77% 30.08 in 10.0 mi West 5.8 mph - N/A   Clear